Theta_e
310 310 311 310 310 311 311 311 312 312 312 314 316 316 318 318 316 315 316 314 314 323 324 328 328 326 330 332 333 336 338 348 350 350 347 344 348 345 343 346 345 344 347 350 357
309 309 309 310 310 310 310 311 311 312 312 313 315 317 317 316 320 321 319 318 316 320 325 331 329 329 332 333 328 329 335 342 343 345 343 348 348 346 345 346 345 349 355 357 359
308 308 309 309 309 310 310 310 311 311 312 313 315 317 317 321 327 333 324 317 320 318 318 329 330 334 334 328 327 332 332 337 338 343 341 346 346 346 343 344 342 348 359 359 359
307 308 308 308 308 309 310 310 310 311 311 313 314 317 318 324 338 334 324 323 322 319 317 323 322 324 328 326 324 326 328 330 331 331 339 340 339 340 340 337 340 351 357 357 358
307 307 308 308 309 309 309 310 310 310 311 312 314 317 322 322 321 329 324 323 320 318 317 320 324 327 325 323 322 323 323 326 329 333 335 338 340 341 338 346 351 354 355 355 351
307 307 308 308 309 309 310 310 310 311 311 312 315 317 325 317 330 330 325 321 321 317 318 321 326 325 324 322 322 322 325 328 329 335 336 336 338 343 342 355 356 354 350 348 347
306 307 307 308 309 309 310 311 311 311 311 313 318 319 324 314 324 325 324 322 320 316 321 324 326 324 321 321 324 327 329 329 331 335 336 334 339 336 344 355 354 352 350 349 346
306 306 307 308 309 310 311 311 312 312 315 316 319 324 320 322 325 323 320 316 316 316 323 325 326 325 321 324 326 328 330 334 333 336 335 332 337 343 349 354 355 353 353 350 342
305 306 306 307 308 309 311 312 313 322 319 319 327 328 325 325 323 324 319 322 319 317 318 322 324 321 326 326 325 325 328 334 338 335 337 334 339 342 350 355 355 348 347 347 341
305 305 306 306 307 308 311 312 321 326 324 324 324 320 317 326 325 326 324 325 323 322 323 322 319 321 321 324 323 329 336 336 340 337 336 336 343 349 352 353 348 343 343 344 344
305 305 306 306 306 307 310 314 312 315 326 319 319 317 320 324 326 325 325 324 326 323 322 322 322 321 322 324 327 329 330 330 330 334 337 334 339 345 349 348 342 338 342 343 346
304 305 305 306 306 307 315 315 315 314 313 314 319 321 321 323 322 323 325 325 325 326 322 321 321 321 322 323 326 327 328 327 328 332 336 335 341 343 346 345 343 337 339 344 344
304 305 306 306 307 312 310 314 315 314 313 315 315 317 317 320 320 320 323 323 326 325 324 322 323 324 324 325 325 324 324 324 327 330 334 336 337 346 345 346 342 336 338 342 344
304 305 306 306 309 308 312 315 314 314 313 316 318 317 316 317 320 321 323 324 324 326 325 325 324 326 326 325 323 323 323 323 324 326 328 329 327 333 338 345 346 341 339 338 342
304 305 305 305 306 307 313 314 316 314 313 318 319 319 316 319 320 320 324 324 324 324 324 325 328 327 328 328 324 325 324 322 324 326 325 325 322 324 336 341 342 342 338 337 338
304 305 306 306 306 307 309 313 314 313 315 319 319 318 318 319 320 319 325 324 323 323 324 323 325 326 326 327 326 326 322 319 321 320 323 323 324 326 338 335 336 338 339 336 339
304 305 305 306 305 311 308 310 312 315 315 319 318 317 317 318 319 319 325 325 325 325 324 324 325 325 327 327 325 319 317 320 321 321 324 324 332 331 337 337 337 336 337 338 340
305 306 307 306 306 307 312 310 314 314 316 317 317 317 317 317 318 319 322 324 323 323 324 327 327 327 326 326 327 320 317 319 322 322 323 324 329 335 338 338 340 335 349 347 350
305 306 307 307 307 308 308 311 309 314 317 316 315 317 316 318 319 319 317 319 322 323 326 325 327 327 327 326 324 324 322 318 318 320 323 323 335 338 339 341 347 352 351 346 343
306 308 310 311 309 311 310 311 313 315 315 314 316 315 317 317 317 317 317 318 322 323 322 324 325 322 325 326 325 323 320 322 318 324 325 323 342 337 341 342 340 351 345 339 337
308 309 311 311 310 309 313 312 315 314 314 314 315 315 316 317 317 317 318 320 320 320 322 321 321 324 326 326 325 322 321 316 317 318 322 324 325 332 337 344 339 345 339 336 335
302 312 312 310 307 306 311 314 313 314 311 313 313 313 315 315 316 316 318 320 318 321 324 321 319 324 323 323 324 322 321 318 321 322 321 321 325 337 336 341 342 337 342 337 337
302 305 314 313 311 309 310 313 313 313 313 314 314 315 314 315 314 315 319 320 318 319 322 319 319 324 321 322 323 326 323 317 316 315 323 324 323 339 335 337 342 347 344 345 344
305 315 310 308 307 314 317 318 318 318 315 313 314 314 314 314 312 314 316 317 317 319 341 325 317 320 323 323 324 328 328 323 320 322 321 320 323 341 336 337 340 348 349 346 343
306 311 310 313 314 314 315 319 321 322 318 315 316 315 317 313 315 314 315 316 318 329 327 321 324 326 327 323 328 331 333 325 326 323 325 324 325 328 337 337 339 344 343 341 341
308 308 306 308 309 310 312 319 323 323 323 322 326 327 323 313 314 316 316 317 319 324 331 327 326 332 332 332 334 335 334 334 335 328 327 329 328 332 334 338 338 339 337 340 338
304 305 306 308 309 311 312 318 321 322 323 325 325 326 322 321 324 321 312 316 320 327 328 336 326 327 330 333 333 328 333 335 335 334 334 336 331 338 341 342 340 338 334 337 338
Wind_Speed
14 14 15 15 16 16 18 18 19 20 19 19 16 12 10 7 5 6 6 6 12 11 10 6 5 3 2 2 2 3 4 1 8 6 5 6 5 3 4 4 1 2 3 10 25
14 15 15 15 17 18 19 19 19 21 20 20 19 13 10 7 5 9 5 13 14 14 10 9 3 2 4 2 1 4 2 6 6 4 4 8 8 8 4 4 3 3 7 25 25
16 16 17 18 19 19 19 20 19 21 21 19 19 14 9 7 2 4 7 18 13 15 7 6 2 2 3 0 1 3 3 3 6 10 7 8 13 9 5 4 6 8 14 16 18
17 17 18 18 20 20 20 20 21 21 21 19 18 13 8 2 3 1 13 15 13 15 7 4 1 1 2 2 2 2 6 4 8 11 7 7 4 7 10 3 9 11 14 14 12
17 18 19 19 20 21 21 21 22 21 21 18 17 11 3 3 6 4 16 16 15 14 9 4 3 2 1 2 4 4 3 3 6 9 6 8 10 7 13 10 18 17 14 12 8
19 20 20 21 22 22 23 23 23 22 20 17 13 8 2 3 2 8 15 17 13 15 9 6 5 4 2 3 2 3 7 9 7 6 3 4 3 3 4 14 19 16 12 13 14
21 22 22 23 23 24 24 25 24 24 19 14 7 4 2 10 3 10 12 12 15 18 5 7 4 2 2 6 2 6 7 9 5 3 6 4 5 3 10 16 17 14 12 7 2
22 24 23 23 24 25 26 26 28 22 12 5 2 2 6 2 3 12 13 9 10 15 6 2 2 2 3 2 7 5 3 4 2 1 4 3 4 2 14 18 14 11 7 6 5
23 25 26 25 25 26 26 27 21 8 2 2 2 2 8 4 7 14 13 7 10 9 7 7 2 2 3 4 5 4 5 3 8 5 1 7 5 7 10 15 13 8 9 7 6
24 26 27 25 25 27 26 26 4 3 4 3 1 3 4 3 4 13 15 8 4 5 1 2 4 3 3 4 4 4 4 3 5 2 2 7 2 2 5 10 11 8 6 6 8
25 26 28 25 23 25 26 6 4 3 1 5 3 4 5 7 5 9 13 7 2 3 4 1 2 6 9 7 4 4 5 6 12 5 3 6 8 15 10 7 9 5 8 5 7
25 27 28 25 22 21 9 3 7 6 8 9 13 8 16 4 4 3 15 5 5 5 3 4 6 8 6 5 5 5 5 11 10 2 4 4 4 7 9 5 14 13 7 6 5
25 27 28 25 21 5 11 4 20 11 3 8 6 6 7 12 8 7 11 6 4 6 5 6 5 4 6 4 4 5 5 6 9 4 2 2 4 4 4 1 1 9 2 4 8
26 26 27 29 3 15 7 14 21 2 4 7 4 7 6 9 4 12 17 6 2 8 6 5 8 11 4 7 7 6 8 9 7 2 2 2 3 6 5 4 7 14 6 6 10
26 26 24 20 14 6 7 19 13 3 3 3 3 0 2 9 5 3 9 4 8 6 6 8 2 3 5 6 6 11 7 4 4 3 3 2 3 3 4 4 7 11 7 12 9
26 25 24 9 12 12 12 17 2 5 6 6 3 4 5 3 1 4 4 4 5 4 2 7 3 3 5 5 6 10 3 6 5 3 2 5 3 2 4 5 5 10 12 10 7
28 24 21 15 4 3 17 3 5 3 5 6 3 4 2 5 4 4 7 6 6 3 5 5 6 5 5 5 2 5 6 3 4 4 5 2 2 7 5 4 3 11 12 6 3
31 25 15 15 8 3 3 5 4 3 5 5 5 4 6 4 4 3 6 5 5 4 2 4 7 5 3 8 8 5 8 6 6 4 4 2 3 3 2 5 6 6 11 11 9
29 15 10 9 12 9 5 3 7 6 4 7 8 5 6 5 2 3 8 7 8 8 8 4 6 4 4 3 6 3 4 4 7 3 2 3 5 4 2 8 14 15 16 19 18
20 9 7 3 16 9 4 5 4 4 4 4 3 4 5 6 3 3 6 4 4 10 4 3 5 6 4 4 2 6 5 4 3 4 3 4 3 5 6 5 5 15 19 16 15
6 4 8 13 17 5 4 6 4 4 6 5 1 3 3 3 0 2 4 2 0 5 13 5 4 7 4 4 5 2 1 6 6 4 6 3 6 6 11 12 14 15 18 20 21
6 3 3 18 4 1 3 4 3 2 4 4 3 6 4 3 4 2 5 3 7 2 9 8 5 6 9 5 3 4 6 6 5 4 1 4 6 2 9 11 9 8 13 15 9
2 2 3 3 3 1 4 3 2 2 4 3 3 5 2 2 4 5 4 4 2 2 3 5 3 7 10 6 3 4 2 5 5 4 6 5 6 2 4 7 5 14 15 12 10
2 2 4 4 0 2 3 3 3 4 6 5 6 3 2 4 5 4 3 4 8 5 5 7 3 8 12 9 3 3 3 4 6 4 3 6 4 6 8 9 9 10 15 13 7
3 1 2 2 2 3 2 3 3 5 4 2 3 2 4 5 3 5 2 5 6 6 5 3 4 4 5 4 4 5 3 8 5 6 6 6 8 9 18 11 14 14 8 8 9
2 3 4 2 3 4 4 5 3 4 2 3 4 10 7 6 6 5 3 2 5 5 3 3 2 2 1 0 3 3 1 3 2 4 5 4 8 2 9 9 6 9 8 9 7
6 3 3 3 3 2 2 4 3 5 3 3 7 5 5 1 9 15 7 5 5 2 1 2 2 2 3 2 1 4 3 3 2 2 6 4 5 5 6 14 13 11 9 11 9
Wind_Direction
9 7 9 3 358 0 357 357 356 358 354 353 349 341 333 310 270 235 235 223 188 167 176 180 225 273 296 312 258 126 55 359 165 191 232 155 205 137 191 212 282 191 206 132 138
4 2 360 355 355 356 351 351 351 353 351 352 349 345 339 326 288 238 227 160 156 165 169 173 161 121 328 269 334 87 113 217 178 208 216 173 192 177 195 176 186 205 83 128 138
360 356 354 354 351 350 345 344 345 345 346 349 348 346 342 334 283 242 178 174 166 178 179 187 43 138 299 318 240 171 205 251 236 194 202 184 216 183 203 219 198 194 142 133 132
354 354 350 348 346 345 340 339 338 339 340 343 344 347 342 3 144 179 161 158 160 180 166 174 129 66 263 304 282 303 251 242 286 290 171 200 165 205 183 219 142 154 130 128 133
356 352 346 344 341 340 337 337 334 334 335 335 338 351 13 323 255 166 159 157 161 178 176 154 152 178 224 245 298 207 274 263 276 304 179 189 212 187 183 97 121 127 118 109 86
358 352 344 338 339 335 333 333 332 329 328 327 334 354 35 306 267 179 170 166 178 177 174 176 192 212 271 259 252 265 280 290 212 258 5 186 94 115 69 131 117 120 129 163 154
357 353 345 335 334 330 331 331 329 323 319 316 332 11 81 240 254 180 181 191 186 182 160 201 184 152 305 316 281 304 327 341 231 211 201 147 38 67 158 134 130 131 177 164 227
354 350 344 333 329 328 328 329 327 319 309 298 355 54 248 304 263 181 177 179 193 203 218 233 243 272 190 286 8 356 34 1 15 230 242 98 215 224 168 139 146 148 191 238 167
350 346 343 333 327 325 326 328 327 343 25 105 66 68 269 300 176 201 187 165 171 202 242 288 310 189 42 73 5 346 250 229 328 301 71 52 144 224 185 148 150 171 209 227 218
346 343 340 332 326 325 326 327 349 39 58 60 39 356 265 217 190 195 202 158 155 123 319 126 54 80 37 87 219 227 285 308 259 277 340 91 59 81 184 163 157 200 222 241 88
343 340 338 332 328 325 328 325 1 351 21 224 201 261 275 313 258 204 180 153 119 95 156 9 96 207 217 204 175 331 310 288 280 246 334 118 165 192 191 170 169 207 237 263 102
341 339 337 332 329 323 340 48 95 305 296 246 244 243 255 293 324 304 164 147 141 187 149 22 253 207 209 203 209 232 278 285 294 217 169 84 180 222 188 221 174 188 208 189 152
341 338 339 334 326 336 326 313 336 352 253 290 217 205 222 149 207 249 151 166 148 157 175 165 249 94 175 226 234 242 203 244 235 357 19 12 96 253 259 314 204 229 136 197 171
339 340 344 334 325 335 297 329 339 147 34 275 250 260 169 138 244 205 179 143 207 195 181 217 251 258 247 254 158 282 214 229 240 75 283 62 267 255 216 189 233 231 187 206 215
337 337 332 328 310 307 322 330 343 104 342 242 215 141 172 161 160 237 166 69 169 190 121 240 200 155 212 231 147 235 284 232 218 125 102 295 85 289 65 242 246 254 191 212 217
329 329 323 321 302 286 317 328 15 45 255 320 161 165 140 196 164 68 115 73 157 181 247 232 256 219 222 267 180 265 180 43 57 80 25 275 134 276 188 239 212 235 233 211 215
325 323 309 289 253 317 327 18 53 158 322 333 346 353 249 170 192 146 143 167 166 135 267 317 253 215 187 298 9 91 51 351 359 13 223 249 42 235 210 248 169 225 242 258 29
327 322 305 261 246 310 336 56 175 245 265 305 329 300 188 149 237 133 122 190 252 117 98 195 319 175 173 174 208 197 160 156 193 188 247 280 252 256 281 326 274 125 78 58 19
331 322 292 273 217 202 81 117 205 208 301 344 325 50 352 342 255 141 180 213 199 163 188 174 273 282 170 141 145 199 207 183 104 50 74 265 289 330 98 50 72 78 82 75 329
335 325 283 242 162 138 83 223 229 227 325 3 9 31 6 335 61 114 176 220 227 185 147 231 296 235 253 159 226 157 159 84 13 130 226 281 260 228 131 169 154 114 116 119 228
353 2 336 162 143 55 168 225 250 248 54 20 310 307 277 277 284 328 212 287 218 282 186 147 131 250 98 183 218 31 232 45 116 129 163 191 260 210 173 174 183 168 160 158 212
355 26 112 152 66 36 166 200 332 328 42 287 215 226 234 282 211 265 226 245 19 281 167 194 156 235 245 284 263 172 214 145 127 232 130 156 266 40 170 180 174 181 179 192 169
20 269 168 226 132 242 279 284 263 270 242 254 268 220 94 345 316 221 240 256 303 55 170 185 218 252 309 353 353 208 136 91 98 94 194 141 262 287 179 149 188 181 196 194 200
57 33 328 52 308 96 19 266 265 258 254 207 245 241 308 253 216 263 243 287 334 323 54 109 156 178 226 211 184 166 150 131 122 105 195 221 225 218 210 163 173 187 199 186 133
27 332 175 316 346 344 281 317 355 3 323 312 313 28 327 278 230 226 215 336 323 2 45 113 209 199 216 210 201 217 168 159 164 190 174 252 204 192 200 184 182 186 185 134 172
72 32 352 285 307 332 0 1 47 338 287 344 9 309 284 206 224 279 147 129 240 329 23 11 269 244 220 128 298 241 229 72 118 115 287 336 259 239 132 144 176 193 174 173 204
8 12 104 297 358 62 335 322 2 345 287 277 297 287 273 79 299 262 240 194 184 243 263 72 118 76 253 38 340 345 222 147 222 183 172 231 270 145 146 162 185 193 189 164 174